#datetime,building,power
2023-01-10T00:00:00,axn,30.94
2023-01-10T00:01:00,axn,31.33
2023-01-10T00:02:00,axn,31.05
2023-01-10T00:03:00,axn,31.20
2023-01-10T00:04:00,axn,31.17
2023-01-10T00:05:00,axn,31.64
2023-01-10T00:06:00,axn,30.86
2023-01-10T00:07:00,axn,31.10
2023-01-10T00:08:00,axn,34.64
2023-01-10T00:09:00,axn,31.31
2023-01-10T00:10:00,axn,31.22
2023-01-10T00:11:00,axn,31.17
2023-01-10T00:12:00,axn,30.88
2023-01-10T00:13:00,axn,30.50
2023-01-10T00:14:00,axn,30.48
2023-01-10T00:15:00,axn,30.94
2023-01-10T00:16:00,axn,30.49
2023-01-10T00:17:00,axn,30.53
2023-01-10T00:18:00,axn,30.53
2023-01-10T00:19:00,axn,30.50
2023-01-10T00:20:00,axn,30.39
2023-01-10T00:21:00,axn,30.50
2023-01-10T00:22:00,axn,30.35
2023-01-10T00:23:00,axn,30.47
2023-01-10T00:24:00,axn,30.00
2023-01-10T00:25:00,axn,29.94
2023-01-10T00:26:00,axn,29.27
2023-01-10T00:27:00,axn,29.51
2023-01-10T00:28:00,axn,29.46
2023-01-10T00:29:00,axn,29.72
2023-01-10T00:30:00,axn,29.57
2023-01-10T00:31:00,axn,29.31
2023-01-10T00:32:00,axn,29.47
2023-01-10T00:33:00,axn,29.63
2023-01-10T00:34:00,axn,29.79
2023-01-10T00:35:00,axn,29.90
2023-01-10T00:36:00,axn,30.04
2023-01-10T00:37:00,axn,44.01
2023-01-10T00:38:00,axn,29.88
2023-01-10T00:39:00,axn,29.73
2023-01-10T00:40:00,axn,29.86
2023-01-10T00:41:00,axn,29.67
2023-01-10T00:42:00,axn,30.28
2023-01-10T00:43:00,axn,30.58
2023-01-10T00:44:00,axn,29.94
2023-01-10T00:45:00,axn,29.53
2023-01-10T00:46:00,axn,29.67
2023-01-10T00:47:00,axn,29.37
2023-01-10T00:48:00,axn,29.57
2023-01-10T00:49:00,axn,29.67
2023-01-10T00:50:00,axn,29.54
2023-01-10T00:51:00,axn,29.17
2023-01-10T00:52:00,axn,29.65
2023-01-10T00:53:00,axn,29.64
2023-01-10T00:54:00,axn,29.57
2023-01-10T00:55:00,axn,29.46
2023-01-10T00:56:00,axn,29.38
2023-01-10T00:57:00,axn,29.49
2023-01-10T00:58:00,axn,29.40
2023-01-10T00:59:00,axn,29.36
2023-01-10T01:00:00,axn,29.32
2023-01-10T01:01:00,axn,29.12
2023-01-10T01:02:00,axn,28.91
2023-01-10T01:03:00,axn,29.18
2023-01-10T01:04:00,axn,29.09
2023-01-10T01:05:00,axn,29.05
2023-01-10T01:06:00,axn,29.22
2023-01-10T01:07:00,axn,29.12
2023-01-10T01:08:00,axn,29.32
2023-01-10T01:09:00,axn,29.26
2023-01-10T01:10:00,axn,29.56
2023-01-10T01:11:00,axn,29.91
2023-01-10T01:12:00,axn,29.64
2023-01-10T01:13:00,axn,29.57
2023-01-10T01:14:00,axn,29.44
2023-01-10T01:15:00,axn,29.10
2023-01-10T01:16:00,axn,29.12
2023-01-10T01:17:00,axn,29.21
2023-01-10T01:18:00,axn,29.22
2023-01-10T01:19:00,axn,29.41
2023-01-10T01:20:00,axn,29.84
2023-01-10T01:21:00,axn,29.41
2023-01-10T01:22:00,axn,29.18
2023-01-10T01:23:00,axn,29.23
2023-01-10T01:24:00,axn,29.29
2023-01-10T01:25:00,axn,29.32
2023-01-10T01:26:00,axn,29.28
2023-01-10T01:27:00,axn,29.29
2023-01-10T01:28:00,axn,29.39
2023-01-10T01:29:00,axn,29.46
2023-01-10T01:30:00,axn,29.19
2023-01-10T01:31:00,axn,29.15
2023-01-10T01:32:00,axn,29.22
2023-01-10T01:33:00,axn,29.01
2023-01-10T01:34:00,axn,29.07
2023-01-10T01:35:00,axn,29.01
2023-01-10T01:36:00,axn,29.06
2023-01-10T01:37:00,axn,28.97
2023-01-10T01:38:00,axn,29.29
2023-01-10T01:39:00,axn,29.58
2023-01-10T01:40:00,axn,29.63
2023-01-10T01:41:00,axn,29.56
2023-01-10T01:42:00,axn,29.38
2023-01-10T01:43:00,axn,29.45
2023-01-10T01:44:00,axn,29.48
2023-01-10T01:45:00,axn,29.49
2023-01-10T01:46:00,axn,29.90
2023-01-10T01:47:00,axn,29.61
2023-01-10T01:48:00,axn,29.97
2023-01-10T01:49:00,axn,29.97
2023-01-10T01:50:00,axn,30.12
2023-01-10T01:51:00,axn,30.03
2023-01-10T01:52:00,axn,29.39
2023-01-10T01:53:00,axn,29.22
2023-01-10T01:54:00,axn,29.39
2023-01-10T01:55:00,axn,29.35
2023-01-10T01:56:00,axn,29.04
2023-01-10T01:57:00,axn,29.53
2023-01-10T01:58:00,axn,29.46
2023-01-10T01:59:00,axn,29.97
2023-01-10T02:00:00,axn,30.11
2023-01-10T02:01:00,axn,29.39
2023-01-10T02:02:00,axn,29.56
2023-01-10T02:03:00,axn,29.32
2023-01-10T02:04:00,axn,29.45
2023-01-10T02:05:00,axn,29.42
2023-01-10T02:06:00,axn,29.97
2023-01-10T02:07:00,axn,29.71
2023-01-10T02:08:00,axn,29.55
2023-01-10T02:09:00,axn,29.70
2023-01-10T02:10:00,axn,30.05
2023-01-10T02:11:00,axn,29.55
2023-01-10T02:12:00,axn,29.69
2023-01-10T02:13:00,axn,29.92
2023-01-10T02:14:00,axn,29.98
2023-01-10T02:15:00,axn,29.99
2023-01-10T02:16:00,axn,29.89
2023-01-10T02:17:00,axn,30.14
2023-01-10T02:18:00,axn,29.76
2023-01-10T02:19:00,axn,29.76
2023-01-10T02:20:00,axn,30.05
2023-01-10T02:21:00,axn,30.06
2023-01-10T02:22:00,axn,29.77
2023-01-10T02:23:00,axn,30.01
2023-01-10T02:24:00,axn,43.90
2023-01-10T02:25:00,axn,29.86
2023-01-10T02:26:00,axn,29.57
2023-01-10T02:27:00,axn,29.52
2023-01-10T02:28:00,axn,29.68
2023-01-10T02:29:00,axn,29.54
2023-01-10T02:30:00,axn,29.65
2023-01-10T02:31:00,axn,29.54
2023-01-10T02:32:00,axn,29.94
2023-01-10T02:33:00,axn,29.39
2023-01-10T02:34:00,axn,29.63
2023-01-10T02:35:00,axn,29.81
2023-01-10T02:36:00,axn,29.78
2023-01-10T02:37:00,axn,29.57
2023-01-10T02:38:00,axn,29.86
2023-01-10T02:39:00,axn,29.85
2023-01-10T02:40:00,axn,29.53
2023-01-10T02:41:00,axn,29.75
2023-01-10T02:42:00,axn,29.55
2023-01-10T02:43:00,axn,29.37
2023-01-10T02:44:00,axn,29.45
2023-01-10T02:45:00,axn,29.55
2023-01-10T02:46:00,axn,29.25
2023-01-10T02:47:00,axn,29.04
2023-01-10T02:48:00,axn,29.33
2023-01-10T02:49:00,axn,32.38
2023-01-10T02:50:00,axn,32.17
2023-01-10T02:51:00,axn,32.04
2023-01-10T02:52:00,axn,29.10
2023-01-10T02:53:00,axn,29.40
2023-01-10T02:54:00,axn,29.32
2023-01-10T02:55:00,axn,29.39
2023-01-10T02:56:00,axn,29.25
2023-01-10T02:57:00,axn,28.90
2023-01-10T02:58:00,axn,29.29
2023-01-10T02:59:00,axn,29.23
2023-01-10T03:00:00,axn,29.56
2023-01-10T03:01:00,axn,29.28
2023-01-10T03:02:00,axn,29.35
2023-01-10T03:03:00,axn,29.21
2023-01-10T03:04:00,axn,29.33
2023-01-10T03:05:00,axn,29.11
2023-01-10T03:06:00,axn,29.32
2023-01-10T03:07:00,axn,29.31
2023-01-10T03:08:00,axn,29.45
2023-01-10T03:09:00,axn,29.66
2023-01-10T03:10:00,axn,29.53
2023-01-10T03:11:00,axn,32.08
2023-01-10T03:12:00,axn,32.43
2023-01-10T03:13:00,axn,29.82
2023-01-10T03:14:00,axn,29.20
2023-01-10T03:15:00,axn,29.55
2023-01-10T03:16:00,axn,29.58
2023-01-10T03:17:00,axn,29.29
2023-01-10T03:18:00,axn,29.29
2023-01-10T03:19:00,axn,29.46
2023-01-10T03:20:00,axn,29.45
2023-01-10T03:21:00,axn,29.35
2023-01-10T03:22:00,axn,29.37
2023-01-10T03:23:00,axn,29.09
2023-01-10T03:24:00,axn,29.22
2023-01-10T03:25:00,axn,29.35
2023-01-10T03:26:00,axn,29.66
2023-01-10T03:27:00,axn,29.28
2023-01-10T03:28:00,axn,29.58
2023-01-10T03:29:00,axn,29.42
2023-01-10T03:30:00,axn,29.52
2023-01-10T03:31:00,axn,29.50
2023-01-10T03:32:00,axn,29.22
2023-01-10T03:33:00,axn,29.56
2023-01-10T03:34:00,axn,29.05
2023-01-10T03:35:00,axn,28.93
2023-01-10T03:36:00,axn,28.94
2023-01-10T03:37:00,axn,28.76
2023-01-10T03:38:00,axn,28.79
2023-01-10T03:39:00,axn,29.32
2023-01-10T03:40:00,axn,28.82
2023-01-10T03:41:00,axn,29.00
2023-01-10T03:42:00,axn,29.22
2023-01-10T03:43:00,axn,28.91
2023-01-10T03:44:00,axn,28.73
2023-01-10T03:45:00,axn,28.99
2023-01-10T03:46:00,axn,29.06
2023-01-10T03:47:00,axn,29.05
2023-01-10T03:48:00,axn,29.12
2023-01-10T03:49:00,axn,29.03
2023-01-10T03:50:00,axn,28.76
2023-01-10T03:51:00,axn,29.22
2023-01-10T03:52:00,axn,29.12
2023-01-10T03:53:00,axn,29.04
2023-01-10T03:54:00,axn,28.82
2023-01-10T03:55:00,axn,28.76
2023-01-10T03:56:00,axn,28.78
2023-01-10T03:57:00,axn,28.52
2023-01-10T03:58:00,axn,29.23
2023-01-10T03:59:00,axn,28.85
2023-01-10T04:00:00,axn,28.76
2023-01-10T04:01:00,axn,28.65
2023-01-10T04:02:00,axn,28.62
2023-01-10T04:03:00,axn,28.09
2023-01-10T04:04:00,axn,29.04
2023-01-10T04:05:00,axn,28.62
2023-01-10T04:06:00,axn,28.37
2023-01-10T04:07:00,axn,28.55
2023-01-10T04:08:00,axn,28.91
2023-01-10T04:09:00,axn,29.16
2023-01-10T04:10:00,axn,29.21
2023-01-10T04:11:00,axn,35.23
2023-01-10T04:12:00,axn,34.58
2023-01-10T04:13:00,axn,34.70
2023-01-10T04:14:00,axn,28.79
2023-01-10T04:15:00,axn,28.83
2023-01-10T04:16:00,axn,28.68
2023-01-10T04:17:00,axn,29.21
2023-01-10T04:18:00,axn,28.91
2023-01-10T04:19:00,axn,29.50
2023-01-10T04:20:00,axn,29.66
2023-01-10T04:21:00,axn,44.99
2023-01-10T04:22:00,axn,44.75
2023-01-10T04:23:00,axn,45.06
2023-01-10T04:24:00,axn,44.62
2023-01-10T04:25:00,axn,44.44
2023-01-10T04:26:00,axn,44.38
2023-01-10T04:27:00,axn,30.29
2023-01-10T04:28:00,axn,30.19
2023-01-10T04:29:00,axn,30.79
2023-01-10T04:30:00,axn,30.46
2023-01-10T04:31:00,axn,30.41
2023-01-10T04:32:00,axn,30.16
2023-01-10T04:33:00,axn,30.29
2023-01-10T04:34:00,axn,30.62
2023-01-10T04:35:00,axn,30.55
2023-01-10T04:36:00,axn,30.41
2023-01-10T04:37:00,axn,30.23
2023-01-10T04:38:00,axn,30.33
2023-01-10T04:39:00,axn,30.56
2023-01-10T04:40:00,axn,30.26
2023-01-10T04:41:00,axn,30.16
2023-01-10T04:42:00,axn,30.64
2023-01-10T04:43:00,axn,30.34
2023-01-10T04:44:00,axn,30.04
2023-01-10T04:45:00,axn,30.35
2023-01-10T04:46:00,axn,30.03
2023-01-10T04:47:00,axn,30.17
2023-01-10T04:48:00,axn,30.66
2023-01-10T04:49:00,axn,42.06
2023-01-10T04:50:00,axn,41.85
2023-01-10T04:51:00,axn,42.26
2023-01-10T04:52:00,axn,41.73
2023-01-10T04:53:00,axn,41.83
2023-01-10T04:54:00,axn,31.57
2023-01-10T04:55:00,axn,31.10
2023-01-10T04:56:00,axn,30.86
2023-01-10T04:57:00,axn,30.67
2023-01-10T04:58:00,axn,30.92
2023-01-10T04:59:00,axn,30.93
2023-01-10T05:00:00,axn,30.30
2023-01-10T05:01:00,axn,28.44
2023-01-10T05:02:00,axn,29.27
2023-01-10T05:03:00,axn,29.46
2023-01-10T05:04:00,axn,29.84
2023-01-10T05:05:00,axn,29.59
2023-01-10T05:06:00,axn,29.92
2023-01-10T05:07:00,axn,29.87
2023-01-10T05:08:00,axn,29.79
2023-01-10T05:09:00,axn,29.86
2023-01-10T05:10:00,axn,30.03
2023-01-10T05:11:00,axn,30.23
2023-01-10T05:12:00,axn,30.09
2023-01-10T05:13:00,axn,29.92
2023-01-10T05:14:00,axn,30.18
2023-01-10T05:15:00,axn,29.61
2023-01-10T05:16:00,axn,29.64
2023-01-10T05:17:00,axn,29.79
2023-01-10T05:18:00,axn,29.78
2023-01-10T05:19:00,axn,29.97
2023-01-10T05:20:00,axn,29.56
2023-01-10T05:21:00,axn,29.61
2023-01-10T05:22:00,axn,29.35
2023-01-10T05:23:00,axn,46.43
2023-01-10T05:24:00,axn,29.71
2023-01-10T05:25:00,axn,29.00
2023-01-10T05:26:00,axn,28.97
2023-01-10T05:27:00,axn,28.88
2023-01-10T05:28:00,axn,28.84
2023-01-10T05:29:00,axn,28.88
2023-01-10T05:30:00,axn,29.28
2023-01-10T05:31:00,axn,29.14
2023-01-10T05:32:00,axn,28.73
2023-01-10T05:33:00,axn,43.85
2023-01-10T05:34:00,axn,29.19
2023-01-10T05:35:00,axn,29.02
2023-01-10T05:36:00,axn,29.06
2023-01-10T05:37:00,axn,28.81
2023-01-10T05:38:00,axn,29.17
2023-01-10T05:39:00,axn,29.24
2023-01-10T05:40:00,axn,29.63
2023-01-10T05:41:00,axn,31.95
2023-01-10T05:42:00,axn,32.20
2023-01-10T05:43:00,axn,29.82
2023-01-10T05:44:00,axn,29.49
2023-01-10T05:45:00,axn,46.36
2023-01-10T05:46:00,axn,29.56
2023-01-10T05:47:00,axn,29.45
2023-01-10T05:48:00,axn,29.36
2023-01-10T05:49:00,axn,61.71
2023-01-10T05:50:00,axn,29.00
2023-01-10T05:51:00,axn,29.05
2023-01-10T05:52:00,axn,29.03
2023-01-10T05:53:00,axn,36.49
2023-01-10T05:54:00,axn,39.44
2023-01-10T05:55:00,axn,39.32
2023-01-10T05:56:00,axn,31.66
2023-01-10T05:57:00,axn,28.58
2023-01-10T05:58:00,axn,28.62
2023-01-10T05:59:00,axn,28.62
2023-01-10T06:00:00,axn,28.69
2023-01-10T06:01:00,axn,29.32
2023-01-10T06:02:00,axn,28.36
2023-01-10T06:03:00,axn,28.46
2023-01-10T06:04:00,axn,28.30
2023-01-10T06:05:00,axn,28.13
2023-01-10T06:06:00,axn,28.08
2023-01-10T06:07:00,axn,27.99
2023-01-10T06:08:00,axn,27.83
2023-01-10T06:09:00,axn,27.95
2023-01-10T06:10:00,axn,28.52
2023-01-10T06:11:00,axn,28.50
2023-01-10T06:12:00,axn,28.66
2023-01-10T06:13:00,axn,44.47
2023-01-10T06:14:00,axn,28.62
2023-01-10T06:15:00,axn,28.47
2023-01-10T06:16:00,axn,28.56
2023-01-10T06:17:00,axn,28.57
2023-01-10T06:18:00,axn,29.21
2023-01-10T06:19:00,axn,29.14
2023-01-10T06:20:00,axn,29.17
2023-01-10T06:21:00,axn,28.98
2023-01-10T06:22:00,axn,29.04
2023-01-10T06:23:00,axn,29.70
2023-01-10T06:24:00,axn,29.43
2023-01-10T06:25:00,axn,29.53
2023-01-10T06:26:00,axn,29.40
2023-01-10T06:27:00,axn,29.25
2023-01-10T06:28:00,axn,29.64
2023-01-10T06:29:00,axn,29.28
2023-01-10T06:30:00,axn,29.41
2023-01-10T06:31:00,axn,29.39
2023-01-10T06:32:00,axn,28.75
2023-01-10T06:33:00,axn,28.74
2023-01-10T06:34:00,axn,28.62
2023-01-10T06:35:00,axn,28.84
2023-01-10T06:36:00,axn,29.12
2023-01-10T06:37:00,axn,29.08
2023-01-10T06:38:00,axn,28.91
2023-01-10T06:39:00,axn,29.00
2023-01-10T06:40:00,axn,29.36
2023-01-10T06:41:00,axn,28.75
2023-01-10T06:42:00,axn,28.67
2023-01-10T06:43:00,axn,28.46
2023-01-10T06:44:00,axn,28.43
2023-01-10T06:45:00,axn,28.37
2023-01-10T06:46:00,axn,28.19
2023-01-10T06:47:00,axn,28.17
2023-01-10T06:48:00,axn,28.44
2023-01-10T06:49:00,axn,28.60
2023-01-10T06:50:00,axn,28.39
2023-01-10T06:51:00,axn,28.07
2023-01-10T06:52:00,axn,28.06
2023-01-10T06:53:00,axn,28.09
2023-01-10T06:54:00,axn,28.12
2023-01-10T06:55:00,axn,28.10
2023-01-10T06:56:00,axn,27.88
2023-01-10T06:57:00,axn,28.02
2023-01-10T06:58:00,axn,28.17
2023-01-10T06:59:00,axn,27.89
2023-01-10T07:00:00,axn,28.22
2023-01-10T07:01:00,axn,31.65
2023-01-10T07:02:00,axn,33.64
2023-01-10T07:03:00,axn,32.25
2023-01-10T07:04:00,axn,31.69
2023-01-10T07:05:00,axn,32.31
2023-01-10T07:06:00,axn,31.90
2023-01-10T07:07:00,axn,32.20
2023-01-10T07:08:00,axn,32.10
2023-01-10T07:09:00,axn,32.24
2023-01-10T07:10:00,axn,33.05
2023-01-10T07:11:00,axn,32.62
2023-01-10T07:12:00,axn,32.96
2023-01-10T07:13:00,axn,32.86
2023-01-10T07:14:00,axn,32.33
2023-01-10T07:15:00,axn,32.32
2023-01-10T07:16:00,axn,32.78
2023-01-10T07:17:00,axn,32.22
2023-01-10T07:18:00,axn,32.27
2023-01-10T07:19:00,axn,32.70
2023-01-10T07:20:00,axn,32.62
2023-01-10T07:21:00,axn,32.67
2023-01-10T07:22:00,axn,32.53
2023-01-10T07:23:00,axn,32.72
2023-01-10T07:24:00,axn,32.60
2023-01-10T07:25:00,axn,32.58
2023-01-10T07:26:00,axn,32.73
2023-01-10T07:27:00,axn,32.90
2023-01-10T07:28:00,axn,32.79
2023-01-10T07:29:00,axn,33.34
2023-01-10T07:30:00,axn,33.15
2023-01-10T07:31:00,axn,33.15
2023-01-10T07:32:00,axn,33.06
2023-01-10T07:33:00,axn,33.15
2023-01-10T07:34:00,axn,33.03
2023-01-10T07:35:00,axn,33.14
2023-01-10T07:36:00,axn,47.43
2023-01-10T07:37:00,axn,47.10
2023-01-10T07:38:00,axn,46.57
2023-01-10T07:39:00,axn,46.76
2023-01-10T07:40:00,axn,47.06
2023-01-10T07:41:00,axn,46.90
2023-01-10T07:42:00,axn,33.26
2023-01-10T07:43:00,axn,49.13
2023-01-10T07:44:00,axn,33.13
2023-01-10T07:45:00,axn,33.30
2023-01-10T07:46:00,axn,33.57
2023-01-10T07:47:00,axn,37.23
2023-01-10T07:48:00,axn,37.12
2023-01-10T07:49:00,axn,37.24
2023-01-10T07:50:00,axn,37.59
2023-01-10T07:51:00,axn,37.55
2023-01-10T07:52:00,axn,37.48
2023-01-10T07:53:00,axn,37.37
2023-01-10T07:54:00,axn,37.96
2023-01-10T07:55:00,axn,37.85
2023-01-10T07:56:00,axn,38.08
2023-01-10T07:57:00,axn,38.20
2023-01-10T07:58:00,axn,38.86
2023-01-10T07:59:00,axn,38.82
2023-01-10T08:00:00,axn,38.79
2023-01-10T08:01:00,axn,38.59
2023-01-10T08:02:00,axn,39.55
2023-01-10T08:03:00,axn,38.90
2023-01-10T08:04:00,axn,38.68
2023-01-10T08:05:00,axn,38.84
2023-01-10T08:06:00,axn,38.83
2023-01-10T08:07:00,axn,39.02
2023-01-10T08:08:00,axn,38.68
2023-01-10T08:09:00,axn,39.13
2023-01-10T08:10:00,axn,39.10
2023-01-10T08:11:00,axn,39.03
2023-01-10T08:12:00,axn,39.13
2023-01-10T08:13:00,axn,39.70
2023-01-10T08:14:00,axn,39.84
2023-01-10T08:15:00,axn,39.94
2023-01-10T08:16:00,axn,39.59
2023-01-10T08:17:00,axn,39.63
2023-01-10T08:18:00,axn,40.48
2023-01-10T08:19:00,axn,40.78
2023-01-10T08:20:00,axn,39.60
2023-01-10T08:21:00,axn,40.53
2023-01-10T08:22:00,axn,40.00
2023-01-10T08:23:00,axn,39.98
2023-01-10T08:24:00,axn,40.00
2023-01-10T08:25:00,axn,40.33
2023-01-10T08:26:00,axn,40.43
2023-01-10T08:27:00,axn,40.95
2023-01-10T08:28:00,axn,41.61
2023-01-10T08:29:00,axn,40.57
2023-01-10T08:30:00,axn,40.70
2023-01-10T08:31:00,axn,41.06
2023-01-10T08:32:00,axn,41.02
2023-01-10T08:33:00,axn,41.22
2023-01-10T08:34:00,axn,41.47
2023-01-10T08:35:00,axn,41.54
2023-01-10T08:36:00,axn,41.69
2023-01-10T08:37:00,axn,41.59
2023-01-10T08:38:00,axn,42.13
2023-01-10T08:39:00,axn,41.86
2023-01-10T08:40:00,axn,42.38
2023-01-10T08:41:00,axn,41.75
2023-01-10T08:42:00,axn,41.90
2023-01-10T08:43:00,axn,44.87
2023-01-10T08:44:00,axn,44.45
2023-01-10T08:45:00,axn,44.12
2023-01-10T08:46:00,axn,41.48
2023-01-10T08:47:00,axn,41.52
2023-01-10T08:48:00,axn,42.48
2023-01-10T08:49:00,axn,42.46
2023-01-10T08:50:00,axn,41.62
2023-01-10T08:51:00,axn,41.43
2023-01-10T08:52:00,axn,42.41
2023-01-10T08:53:00,axn,41.68
2023-01-10T08:54:00,axn,41.90
2023-01-10T08:55:00,axn,41.50
2023-01-10T08:56:00,axn,41.41
2023-01-10T08:57:00,axn,40.72
2023-01-10T08:58:00,axn,41.11
2023-01-10T08:59:00,axn,41.84
2023-01-10T09:00:00,axn,42.09
2023-01-10T09:01:00,axn,42.64
2023-01-10T09:02:00,axn,42.73
2023-01-10T09:03:00,axn,42.67
2023-01-10T09:04:00,axn,42.42
2023-01-10T09:05:00,axn,52.73
2023-01-10T09:06:00,axn,52.64
2023-01-10T09:07:00,axn,52.18
2023-01-10T09:08:00,axn,52.52
2023-01-10T09:09:00,axn,42.37
2023-01-10T09:10:00,axn,42.45
2023-01-10T09:11:00,axn,42.67
2023-01-10T09:12:00,axn,42.88
2023-01-10T09:13:00,axn,42.71
2023-01-10T09:14:00,axn,42.93
2023-01-10T09:15:00,axn,42.77
2023-01-10T09:16:00,axn,42.74
2023-01-10T09:17:00,axn,42.45
2023-01-10T09:18:00,axn,42.53
2023-01-10T09:19:00,axn,42.50
2023-01-10T09:20:00,axn,42.93
2023-01-10T09:21:00,axn,42.71
2023-01-10T09:22:00,axn,42.63
2023-01-10T09:23:00,axn,44.71
2023-01-10T09:24:00,axn,42.98
2023-01-10T09:25:00,axn,43.33
2023-01-10T09:26:00,axn,44.94
2023-01-10T09:27:00,axn,43.64
2023-01-10T09:28:00,axn,43.28
2023-01-10T09:29:00,axn,43.58
2023-01-10T09:30:00,axn,43.30
2023-01-10T09:31:00,axn,43.41
2023-01-10T09:32:00,axn,43.54
2023-01-10T09:33:00,axn,44.38
2023-01-10T09:34:00,axn,44.17
2023-01-10T09:35:00,axn,43.86
2023-01-10T09:36:00,axn,44.28
2023-01-10T09:37:00,axn,44.27
2023-01-10T09:38:00,axn,44.34
2023-01-10T09:39:00,axn,44.11
2023-01-10T09:40:00,axn,44.15
2023-01-10T09:41:00,axn,43.89
2023-01-10T09:42:00,axn,43.92
2023-01-10T09:43:00,axn,43.66
2023-01-10T09:44:00,axn,46.33
2023-01-10T09:45:00,axn,43.77
2023-01-10T09:46:00,axn,43.60
2023-01-10T09:47:00,axn,44.05
2023-01-10T09:48:00,axn,43.74
2023-01-10T09:49:00,axn,43.44
2023-01-10T09:50:00,axn,43.29
2023-01-10T09:51:00,axn,43.31
2023-01-10T09:52:00,axn,43.36
2023-01-10T09:53:00,axn,43.47
2023-01-10T09:54:00,axn,43.47
2023-01-10T09:55:00,axn,43.75
2023-01-10T09:56:00,axn,43.43
2023-01-10T09:57:00,axn,42.99
2023-01-10T09:58:00,axn,43.16
2023-01-10T09:59:00,axn,43.83
2023-01-10T10:00:00,axn,45.15
2023-01-10T10:01:00,axn,44.68
2023-01-10T10:02:00,axn,46.67
2023-01-10T10:03:00,axn,46.67
2023-01-10T10:04:00,axn,46.25
2023-01-10T10:05:00,axn,45.96
2023-01-10T10:06:00,axn,45.66
2023-01-10T10:07:00,axn,46.23
2023-01-10T10:08:00,axn,46.14
2023-01-10T10:09:00,axn,46.19
2023-01-10T10:10:00,axn,45.91
2023-01-10T10:11:00,axn,46.08
2023-01-10T10:12:00,axn,46.03
2023-01-10T10:13:00,axn,45.76
2023-01-10T10:14:00,axn,46.35
2023-01-10T10:15:00,axn,46.04
2023-01-10T10:16:00,axn,46.23
2023-01-10T10:17:00,axn,46.24
2023-01-10T10:18:00,axn,46.95
2023-01-10T10:19:00,axn,46.39
2023-01-10T10:20:00,axn,49.33
2023-01-10T10:21:00,axn,49.41
2023-01-10T10:22:00,axn,49.68
2023-01-10T10:23:00,axn,46.56
2023-01-10T10:24:00,axn,47.39
2023-01-10T10:25:00,axn,47.30
2023-01-10T10:26:00,axn,47.58
2023-01-10T10:27:00,axn,48.23
2023-01-10T10:28:00,axn,48.70
2023-01-10T10:29:00,axn,48.44
2023-01-10T10:30:00,axn,57.10
2023-01-10T10:31:00,axn,57.67
2023-01-10T10:32:00,axn,56.97
2023-01-10T10:33:00,axn,56.97
2023-01-10T10:34:00,axn,60.20
2023-01-10T10:35:00,axn,60.13
2023-01-10T10:36:00,axn,59.91
2023-01-10T10:37:00,axn,60.00
2023-01-10T10:38:00,axn,59.74
2023-01-10T10:39:00,axn,60.36
2023-01-10T10:40:00,axn,60.22
2023-01-10T10:41:00,axn,60.04
2023-01-10T10:42:00,axn,60.31
2023-01-10T10:43:00,axn,60.47
2023-01-10T10:44:00,axn,60.16
2023-01-10T10:45:00,axn,60.66
2023-01-10T10:46:00,axn,61.57
2023-01-10T10:47:00,axn,60.56
2023-01-10T10:48:00,axn,61.03
2023-01-10T10:49:00,axn,61.51
2023-01-10T10:50:00,axn,61.72
2023-01-10T10:51:00,axn,61.31
2023-01-10T10:52:00,axn,61.39
2023-01-10T10:53:00,axn,61.51
2023-01-10T10:54:00,axn,61.33
2023-01-10T10:55:00,axn,61.20
2023-01-10T10:56:00,axn,61.14
2023-01-10T10:57:00,axn,60.59
2023-01-10T10:58:00,axn,60.93
2023-01-10T10:59:00,axn,60.70
2023-01-10T11:00:00,axn,61.36
2023-01-10T11:01:00,axn,60.84
2023-01-10T11:02:00,axn,60.23
2023-01-10T11:03:00,axn,60.24
2023-01-10T11:04:00,axn,60.70
2023-01-10T11:05:00,axn,60.46
2023-01-10T11:06:00,axn,60.83
2023-01-10T11:07:00,axn,60.21
2023-01-10T11:08:00,axn,61.94
2023-01-10T11:09:00,axn,61.10
2023-01-10T11:10:00,axn,61.37
2023-01-10T11:11:00,axn,61.10
2023-01-10T11:12:00,axn,61.65
2023-01-10T11:13:00,axn,61.06
2023-01-10T11:14:00,axn,60.82
2023-01-10T11:15:00,axn,60.21
2023-01-10T11:16:00,axn,60.62
2023-01-10T11:17:00,axn,60.46
2023-01-10T11:18:00,axn,60.80
2023-01-10T11:19:00,axn,61.07
2023-01-10T11:20:00,axn,60.83
2023-01-10T11:21:00,axn,60.72
2023-01-10T11:22:00,axn,60.48
2023-01-10T11:23:00,axn,60.47
2023-01-10T11:24:00,axn,60.63
2023-01-10T11:25:00,axn,60.58
2023-01-10T11:26:00,axn,60.71
2023-01-10T11:27:00,axn,61.03
2023-01-10T11:28:00,axn,60.89
2023-01-10T11:29:00,axn,76.20
2023-01-10T11:30:00,axn,76.67
2023-01-10T11:31:00,axn,78.91
2023-01-10T11:32:00,axn,75.67
2023-01-10T11:33:00,axn,75.01
2023-01-10T11:34:00,axn,60.93
2023-01-10T11:35:00,axn,63.72
2023-01-10T11:36:00,axn,64.13
2023-01-10T11:37:00,axn,63.86
2023-01-10T11:38:00,axn,61.61
2023-01-10T11:39:00,axn,61.97
2023-01-10T11:40:00,axn,61.91
2023-01-10T11:41:00,axn,60.99
2023-01-10T11:42:00,axn,61.06
2023-01-10T11:43:00,axn,61.10
2023-01-10T11:44:00,axn,60.74
2023-01-10T11:45:00,axn,60.93
2023-01-10T11:46:00,axn,60.84
2023-01-10T11:47:00,axn,61.24
2023-01-10T11:48:00,axn,66.79
2023-01-10T11:49:00,axn,67.08
2023-01-10T11:50:00,axn,67.38
2023-01-10T11:51:00,axn,60.92
2023-01-10T11:52:00,axn,60.51
2023-01-10T11:53:00,axn,78.48
2023-01-10T11:54:00,axn,61.06
2023-01-10T11:55:00,axn,59.97
2023-01-10T11:56:00,axn,60.47
2023-01-10T11:57:00,axn,60.19
2023-01-10T11:58:00,axn,60.83
2023-01-10T11:59:00,axn,60.59
2023-01-10T12:00:00,axn,60.59
2023-01-10T12:01:00,axn,60.67
2023-01-10T12:02:00,axn,60.70
2023-01-10T12:03:00,axn,61.16
2023-01-10T12:04:00,axn,60.27
2023-01-10T12:05:00,axn,60.07
2023-01-10T12:06:00,axn,59.73
2023-01-10T12:07:00,axn,59.70
2023-01-10T12:08:00,axn,59.79
2023-01-10T12:09:00,axn,60.93
2023-01-10T12:10:00,axn,60.81
2023-01-10T12:11:00,axn,62.58
2023-01-10T12:12:00,axn,59.76
2023-01-10T12:13:00,axn,59.34
2023-01-10T12:14:00,axn,59.01
2023-01-10T12:15:00,axn,58.73
2023-01-10T12:16:00,axn,59.71
2023-01-10T12:17:00,axn,59.53
2023-01-10T12:18:00,axn,59.93
2023-01-10T12:19:00,axn,59.42
2023-01-10T12:20:00,axn,59.17
2023-01-10T12:21:00,axn,58.85
2023-01-10T12:22:00,axn,58.88
2023-01-10T12:23:00,axn,58.74
2023-01-10T12:24:00,axn,58.96
2023-01-10T12:25:00,axn,59.23
2023-01-10T12:26:00,axn,55.28
2023-01-10T12:27:00,axn,55.10
2023-01-10T12:28:00,axn,55.11
2023-01-10T12:29:00,axn,54.84
2023-01-10T12:30:00,axn,55.12
2023-01-10T12:31:00,axn,55.53
2023-01-10T12:32:00,axn,54.99
2023-01-10T12:33:00,axn,54.86
2023-01-10T12:34:00,axn,55.20
2023-01-10T12:35:00,axn,54.95
2023-01-10T12:36:00,axn,54.73
2023-01-10T12:37:00,axn,53.13
2023-01-10T12:38:00,axn,53.07
2023-01-10T12:39:00,axn,53.34
2023-01-10T12:40:00,axn,53.18
2023-01-10T12:41:00,axn,56.03
2023-01-10T12:42:00,axn,53.87
2023-01-10T12:43:00,axn,57.88
2023-01-10T12:44:00,axn,57.48
2023-01-10T12:45:00,axn,57.92
2023-01-10T12:46:00,axn,53.43
2023-01-10T12:47:00,axn,53.63
2023-01-10T12:48:00,axn,54.30
2023-01-10T12:49:00,axn,54.26
2023-01-10T12:50:00,axn,64.54
2023-01-10T12:51:00,axn,64.56
2023-01-10T12:52:00,axn,64.23
2023-01-10T12:53:00,axn,64.88
2023-01-10T12:54:00,axn,54.52
2023-01-10T12:55:00,axn,54.77
2023-01-10T12:56:00,axn,54.46
2023-01-10T12:57:00,axn,54.79
2023-01-10T12:58:00,axn,54.42
2023-01-10T12:59:00,axn,46.46
2023-01-10T13:00:00,axn,46.44
2023-01-10T13:01:00,axn,46.79
2023-01-10T13:02:00,axn,46.60
2023-01-10T13:03:00,axn,46.92
2023-01-10T13:04:00,axn,46.65
2023-01-10T13:05:00,axn,46.84
2023-01-10T13:06:00,axn,46.83
2023-01-10T13:07:00,axn,46.88
2023-01-10T13:08:00,axn,47.63
2023-01-10T13:09:00,axn,45.61
2023-01-10T13:10:00,axn,45.62
2023-01-10T13:11:00,axn,45.15
2023-01-10T13:12:00,axn,44.80
2023-01-10T13:13:00,axn,47.45
2023-01-10T13:14:00,axn,46.93
2023-01-10T13:15:00,axn,47.13
2023-01-10T13:16:00,axn,44.03
2023-01-10T13:17:00,axn,44.23
2023-01-10T13:18:00,axn,44.32